| time (UTC) | temp C | wind direction | speed KPH | gust KPH | rain 1hr cm | rain 24hr cm | rain mn cm | humidity % | barometer mb |
| 20260509043001 | 12 | 336 | 1.6 | 4.8 | 0.23 | 0.56 | 0.15 | 95 | 1010.5 |
| 20260509041502 | 12 | 317 | 0.0 | 3.2 | 0.18 | 0.48 | 0.08 | 95 | 1010.7 |
| 20260509040005 | 12 | 277 | 0.0 | 3.2 | 0.13 | 0.41 | 0.00 | 95 | 1010.7 |
| 20260509034501 | 12 | 277 | 1.6 | 4.8 | 0.10 | 0.36 | 0.36 | 94 | 1010.7 |
| 20260509033000 | 12 | 322 | 0.0 | 0.0 | 0.13 | 0.33 | 0.33 | 94 | 1011.0 |
| 20260509031502 | 12 | 316 | 0.0 | 0.0 | 0.15 | 0.30 | 0.30 | 94 | 1010.8 |
| 20260509030003 | 12 | 316 | 0.0 | 0.0 | 0.18 | 0.28 | 0.28 | 94 | 1010.9 |
| 20260509024500 | 12 | 316 | 0.0 | 0.0 | 0.20 | 0.25 | 0.25 | 93 | 1011.0 |
| 20260509023002 | 12 | 316 | 1.6 | 4.8 | 0.18 | 0.20 | 0.20 | 93 | 1011.0 |
| 20260509021501 | 12 | 309 | 3.2 | 6.4 | 0.15 | 0.15 | 0.15 | 93 | 1011.1 |
| 20260509020002 | 12 | 309 | 1.6 | 8.0 | 0.10 | 0.10 | 0.10 | 93 | 1011.1 |
| 20260509014501 | 12 | 284 | 0.0 | 3.2 | 0.05 | 0.05 | 0.05 | 92 | 1011.2 |
| 20260509013000 | 12 | 5 | 0.0 | 1.6 | 0.03 | 0.03 | 0.03 | 91 | 1011.1 |
| 20260509011502 | 12 | 5 | 0.0 | 3.2 | 0.00 | 0.00 | 0.00 | 90 | 1010.8 |
| 20260509010002 | 12 | 48 | 0.0 | 3.2 | 0.00 | 0.00 | 0.00 | 89 | 1010.2 |
| 20260509004501 | 13 | 116 | 1.6 | 3.2 | 0.00 | 0.00 | 0.00 | 87 | 1010.0 |
| 20260509003001 | 13 | 11 | 0.0 | 1.6 | 0.00 | 0.00 | 0.00 | 86 | 1010.5 |
| 20260509001501 | 13 | 98 | 1.6 | 4.8 | 0.00 | 0.00 | 0.00 | 83 | 1010.0 |
| 20260509000004 | 14 | 342 | 1.6 | 6.4 | 0.00 | 0.00 | 0.00 | 80 | 1010.1 |
| 20260508234500 | 15 | 275 | 4.8 | 14.5 | 0.00 | 0.00 | 0.00 | 75 | 1010.4 |
| 20260508233001 | 15 | 322 | 3.2 | 12.9 | 0.00 | 0.00 | 0.00 | 72 | 1010.3 |
| 20260508231501 | 15 | 349 | 0.0 | 12.9 | 0.00 | 0.00 | 0.00 | 78 | 1010.0 |
| 20260508230000 | 16 | 209 | 0.0 | 0.0 | 0.00 | 0.00 | 0.00 | 79 | 1009.7 |
| 20260508223000 | 16 | 24 | 1.6 | 4.8 | 0.00 | 0.00 | 0.00 | 72 | 1009.6 |
| 20260508220000 | 17 | 293 | 0.0 | 1.6 | 0.00 | 0.00 | 0.00 | 65 | 1009.6 |
| 20260508212959 | 18 | 267 | 1.6 | 4.8 | 0.00 | 0.00 | 0.00 | 53 | 1009.6 |
| 20260508211501 | 18 | 290 | 4.8 | 12.9 | 0.00 | 0.00 | 0.00 | 50 | 1009.9 |
| 20260508210003 | 18 | 269 | 4.8 | 14.5 | 0.00 | 0.00 | 0.00 | 47 | 1009.7 |
| 20260508204501 | 18 | 273 | 8.0 | 17.7 | 0.00 | 0.00 | 0.00 | 46 | 1009.8 |
| 20260508203001 | 18 | 194 | 6.4 | 17.7 | 0.00 | 0.00 | 0.00 | 47 | 1010.1 |
| 20260508201501 | 18 | 292 | 9.7 | 20.9 | 0.00 | 0.00 | 0.00 | 47 | 1010.3 |
| 20260508200002 | 18 | 269 | 6.4 | 16.1 | 0.00 | 0.00 | 0.00 | 47 | 1010.6 |
| 20260508194501 | 18 | 315 | 8.0 | 17.7 | 0.00 | 0.00 | 0.00 | 46 | 1010.8 |
| 20260508193001 | 19 | 273 | 11.3 | 24.1 | 0.00 | 0.00 | 0.00 | 46 | 1011.0 |
| 20260508191500 | 19 | 288 | 9.7 | 22.5 | 0.00 | 0.00 | 0.00 | 46 | 1011.3 |
| 20260508184500 | 19 | 212 | 8.0 | 16.1 | 0.00 | 0.00 | 0.00 | 45 | 1011.5 |
| 20260508182959 | 19 | 287 | 12.9 | 30.6 | 0.00 | 0.00 | 0.00 | 46 | 1011.7 |
| 20260508181459 | 20 | 223 | 9.7 | 22.5 | 0.00 | 0.00 | 0.00 | 48 | 1011.7 |
| 20260508174501 | 19 | 303 | 8.0 | 19.3 | 0.00 | 0.00 | 0.00 | 50 | 1012.2 |
| 20260508173000 | 18 | 234 | 8.0 | 16.1 | 0.00 | 0.00 | 0.00 | 49 | 1012.8 |
| 20260508171459 | 17 | 269 | 14.5 | 29.0 | 0.00 | 0.00 | 0.00 | 52 | 1013.2 |
| 20260508165959 | 17 | 304 | 12.9 | 24.1 | 0.00 | 0.00 | 0.00 | 52 | 1013.2 |
| 20260508164459 | 17 | 186 | 11.3 | 25.7 | 0.00 | 0.00 | 0.00 | 50 | 1013.4 |
| 20260508163002 | 17 | 293 | 12.9 | 24.1 | 0.00 | 0.00 | 0.00 | 51 | 1013.7 |
| 20260508161500 | 17 | 194 | 9.7 | 24.1 | 0.00 | 0.00 | 0.00 | 52 | 1013.8 |
| 20260508160002 | 17 | 291 | 16.1 | 33.8 | 0.00 | 0.00 | 0.00 | 51 | 1013.9 |
| 20260508154501 | 17 | 227 | 14.5 | 30.6 | 0.00 | 0.00 | 0.00 | 51 | 1014.0 |
| 20260508153000 | 17 | 304 | 11.3 | 25.7 | 0.00 | 0.00 | 0.00 | 52 | 1013.9 |
| 20260508150000 | 16 | 252 | 14.5 | 29.0 | 0.00 | 0.00 | 0.00 | 51 | 1014.1 |
| 20260508144500 | 16 | 299 | 14.5 | 30.6 | 0.00 | 0.00 | 0.00 | 52 | 1014.3 |
| 20260508143000 | 16 | 276 | 12.9 | 24.1 | 0.00 | 0.00 | 0.00 | 52 | 1014.4 |
| 20260508140000 | 15 | 281 | 12.9 | 27.4 | 0.00 | 0.00 | 0.00 | 51 | 1014.4 |
| 20260508134500 | 14 | 300 | 14.5 | 33.8 | 0.00 | 0.00 | 0.00 | 52 | 1014.7 |
| 20260508131500 | 13 | 281 | 12.9 | 33.8 | 0.00 | 0.00 | 0.00 | 55 | 1014.6 |
| 20260508130000 | 13 | 320 | 8.0 | 20.9 | 0.00 | 0.00 | 0.00 | 56 | 1014.6 |
| 20260508124459 | 12 | 306 | 8.0 | 24.1 | 0.00 | 0.00 | 0.00 | 57 | 1014.7 |
| 20260508123000 | 12 | 304 | 3.2 | 16.1 | 0.00 | 0.00 | 0.00 | 61 | 1014.5 |
| 20260508121501 | 11 | 252 | 0.0 | 6.4 | 0.00 | 0.00 | 0.00 | 65 | 1014.5 |
| 20260508120001 | 10 | 317 | 0.0 | 0.0 | 0.00 | 0.00 | 0.00 | 72 | 1014.4 |
| 20260508113001 | 7 | 317 | 0.0 | 0.0 | 0.00 | 0.00 | 0.00 | 78 | 1014.5 |
| 20260508111500 | 7 | 317 | 0.0 | 0.0 | 0.00 | 0.00 | 0.00 | 79 | 1014.3 |
| 20260508110002 | 7 | 271 | 0.0 | 0.0 | 0.00 | 0.00 | 0.00 | 75 | 1014.4 |
| 20260508104459 | 8 | 271 | 0.0 | 1.6 | 0.00 | 0.00 | 0.00 | 72 | 1014.3 |
| 20260508102959 | 9 | 271 | 0.0 | 4.8 | 0.00 | 0.00 | 0.00 | 70 | 1014.2 |
| 20260508101500 | 10 | 246 | 0.0 | 1.6 | 0.00 | 0.00 | 0.00 | 69 | 1014.2 |
| 20260508094459 | 10 | 286 | 6.4 | 14.5 | 0.00 | 0.00 | 0.00 | 65 | 1014.2 |
| 20260508092959 | 9 | 286 | 3.2 | 9.7 | 0.00 | 0.00 | 0.00 | 70 | 1014.3 |
| 20260508091500 | 8 | 273 | 1.6 | 6.4 | 0.00 | 0.00 | 0.00 | 77 | 1014.3 |
| 20260508090003 | 7 | 310 | 0.0 | 0.0 | 0.00 | 0.00 | 0.00 | 83 | 1014.3 |
| 20260508084500 | 6 | 351 | 0.0 | 0.0 | 0.00 | 0.00 | 0.00 | 88 | 1014.2 |
| 20260508083000 | 5 | 351 | 0.0 | 0.0 | 0.00 | 0.00 | 0.00 | 92 | 1014.2 |
| 20260508081501 | 5 | 351 | 0.0 | 0.0 | 0.00 | 0.00 | 0.00 | 91 | 1014.2 |
| 20260508080001 | 5 | 351 | 0.0 | 0.0 | 0.00 | 0.00 | 0.00 | 91 | 1014.3 |
| 20260508074459 | 5 | 351 | 0.0 | 0.0 | 0.00 | 0.00 | 0.00 | 91 | 1014.3 |
| 20260508072959 | 5 | 351 | 0.0 | 0.0 | 0.00 | 0.00 | 0.00 | 91 | 1014.3 |
| 20260508071459 | 5 | 351 | 0.0 | 0.0 | 0.00 | 0.00 | 0.00 | 92 | 1014.2 |
| 20260508070001 | 5 | 351 | 0.0 | 0.0 | 0.00 | 0.00 | 0.00 | 91 | 1014.3 |
| 20260508064500 | 5 | 351 | 0.0 | 0.0 | 0.00 | 0.00 | 0.00 | 90 | 1014.5 |
| 20260508062959 | 5 | 351 | 0.0 | 0.0 | 0.00 | 0.00 | 0.00 | 91 | 1014.7 |
| 20260508061500 | 5 | 351 | 0.0 | 0.0 | 0.00 | 0.00 | 0.00 | 91 | 1014.7 |
| 20260508060001 | 5 | 351 | 0.0 | 0.0 | 0.00 | 0.00 | 0.00 | 91 | 1014.8 |
| 20260508054459 | 5 | 351 | 0.0 | 0.0 | 0.00 | 0.00 | 0.00 | 90 | 1015.0 |
| 20260508052959 | 5 | 351 | 0.0 | 0.0 | 0.00 | 0.00 | 0.00 | 89 | 1014.9 |
| 20260508051500 | 5 | 351 | 0.0 | 0.0 | 0.00 | 0.00 | 0.00 | 88 | 1015.0 |
| 20260508050002 | 5 | 351 | 0.0 | 0.0 | 0.00 | 0.00 | 0.00 | 87 | 1014.8 |
| 20260508044501 | 5 | 351 | 0.0 | 0.0 | 0.00 | 0.00 | 0.00 | 86 | 1014.9 |